カタログに戻る

CZ-4 DEB

運用中PO
NORAD 26432·DEBRIS·🇨🇳 China

打ち上げ Oct 14, 1999 から Taiyuan Satellite Launch Center

Loading…

次のパス (今後24時間)

TLE

最新Source: Space-Track

元期: Sep 14, 2026, 08:37 UTC

1 26432U 99057KD  26257.35951576  .00022165  00000-0  16629-2 0  9992
2 26432  98.5803  49.1732 0046835 228.3118 131.4092 15.01783209385179

AllMySatでCZ-4 DEBをリアルタイム追跡

Download on the App Store